Year,Month,Day,Hour,Minute,Value (Times are PST for temperature in C)
2012,06,21,00,00,14.30
2012,06,21,00,01,14.30
2012,06,21,00,02,14.30
2012,06,21,00,03,14.40
2012,06,21,00,04,14.40
2012,06,21,00,05,14.40
2012,06,21,00,06,14.40
2012,06,21,00,07,14.50
2012,06,21,00,08,14.50
2012,06,21,00,09,14.50
2012,06,21,00,10,14.50
2012,06,21,00,11,14.50
2012,06,21,00,12,14.50
2012,06,21,00,13,14.60
2012,06,21,00,14,14.60
2012,06,21,00,15,14.60
2012,06,21,00,16,14.60
2012,06,21,00,17,14.60
2012,06,21,00,18,14.60
2012,06,21,00,19,14.60
2012,06,21,00,20,14.50
2012,06,21,00,21,14.50
2012,06,21,00,22,14.50
2012,06,21,00,23,14.50
2012,06,21,00,24,14.40
2012,06,21,00,25,14.40
2012,06,21,00,26,14.40
2012,06,21,00,27,14.40
2012,06,21,00,28,14.40
2012,06,21,00,29,14.30
2012,06,21,00,30,14.30
2012,06,21,00,31,14.30
2012,06,21,00,32,14.30
2012,06,21,00,33,14.30
2012,06,21,00,34,14.30
2012,06,21,00,35,14.30
2012,06,21,00,36,14.30
2012,06,21,00,37,14.30
2012,06,21,00,38,14.30
2012,06,21,00,39,14.30
2012,06,21,00,40,14.30
2012,06,21,00,41,14.30
2012,06,21,00,42,14.30
2012,06,21,00,43,14.30
2012,06,21,00,44,14.20
2012,06,21,00,45,14.20
2012,06,21,00,46,14.20
2012,06,21,00,47,14.20
2012,06,21,00,48,14.20
2012,06,21,00,49,14.20
2012,06,21,00,50,14.20
2012,06,21,00,51,14.20
2012,06,21,00,52,14.20
2012,06,21,00,53,14.20
2012,06,21,00,54,14.20
2012,06,21,00,55,14.20
2012,06,21,00,56,14.20
2012,06,21,00,57,14.10
2012,06,21,00,58,14.10
2012,06,21,00,59,14.10
2012,06,21,01,00,14.10
2012,06,21,01,01,14.10
2012,06,21,01,02,14.10
2012,06,21,01,03,14.10
2012,06,21,01,04,14.10
2012,06,21,01,05,14.10
2012,06,21,01,06,14.10
2012,06,21,01,07,14.10
2012,06,21,01,08,14.20
2012,06,21,01,09,14.20
2012,06,21,01,10,14.20
2012,06,21,01,11,14.20
2012,06,21,01,12,14.20
2012,06,21,01,13,14.20
2012,06,21,01,14,14.20
2012,06,21,01,15,14.20
2012,06,21,01,16,14.20
2012,06,21,01,17,14.20
2012,06,21,01,18,14.20
2012,06,21,01,19,14.20
2012,06,21,01,20,14.20
2012,06,21,01,21,14.30
2012,06,21,01,22,14.30
2012,06,21,01,23,14.30
2012,06,21,01,24,14.30
2012,06,21,01,25,14.30
2012,06,21,01,26,14.30
2012,06,21,01,27,14.30
2012,06,21,01,28,14.30
2012,06,21,01,29,14.30
2012,06,21,01,30,14.30
2012,06,21,01,31,14.30
2012,06,21,01,32,14.30
2012,06,21,01,33,14.30
2012,06,21,01,34,14.30
2012,06,21,01,35,14.20
2012,06,21,01,36,14.20
2012,06,21,01,37,14.20
2012,06,21,01,38,14.20
2012,06,21,01,39,14.20
2012,06,21,01,40,14.20
2012,06,21,01,41,14.20
2012,06,21,01,42,14.20
2012,06,21,01,43,14.20
2012,06,21,01,44,14.20
2012,06,21,01,45,14.10
2012,06,21,01,46,14.10
2012,06,21,01,47,14.10
2012,06,21,01,48,14.10
2012,06,21,01,49,14.10
2012,06,21,01,50,14.00
2012,06,21,01,51,14.00
2012,06,21,01,52,14.00
2012,06,21,01,53,14.00
2012,06,21,01,54,13.90
2012,06,21,01,55,14.00
2012,06,21,01,56,13.90
2012,06,21,01,57,13.90
2012,06,21,01,58,13.90
2012,06,21,01,59,13.90
2012,06,21,02,00,13.90
2012,06,21,02,01,13.90
2012,06,21,02,02,13.90
2012,06,21,02,03,13.90
2012,06,21,02,04,13.90
2012,06,21,02,05,13.90
2012,06,21,02,06,13.90
2012,06,21,02,07,13.90
2012,06,21,02,08,13.90
2012,06,21,02,09,13.90
2012,06,21,02,10,13.90
2012,06,21,02,11,13.90
2012,06,21,02,12,13.90
2012,06,21,02,13,13.90
2012,06,21,02,14,13.90
2012,06,21,02,15,13.90
2012,06,21,02,16,13.90
2012,06,21,02,17,13.80
2012,06,21,02,18,13.80
2012,06,21,02,19,13.80
2012,06,21,02,20,13.80
2012,06,21,02,21,13.80
2012,06,21,02,22,13.80
2012,06,21,02,23,13.80
2012,06,21,02,24,13.80
2012,06,21,02,25,13.80
2012,06,21,02,26,13.80
2012,06,21,02,27,13.80
2012,06,21,02,28,13.80
2012,06,21,02,29,13.80
2012,06,21,02,30,13.80
2012,06,21,02,31,13.80
2012,06,21,02,32,13.80
2012,06,21,02,33,13.80
2012,06,21,02,34,13.80
2012,06,21,02,35,13.80
2012,06,21,02,36,13.80
2012,06,21,02,37,13.80
2012,06,21,02,38,13.80
2012,06,21,02,39,13.80
2012,06,21,02,40,13.80
2012,06,21,02,41,13.80
2012,06,21,02,42,13.80
2012,06,21,02,43,13.80
2012,06,21,02,44,13.80
2012,06,21,02,45,13.80
2012,06,21,02,46,13.80
2012,06,21,02,47,13.80
2012,06,21,02,48,13.80
2012,06,21,02,49,13.80
2012,06,21,02,50,13.80
2012,06,21,02,51,13.80
2012,06,21,02,52,13.80
2012,06,21,02,53,13.80
2012,06,21,02,54,13.80
2012,06,21,02,55,13.80
2012,06,21,02,56,13.80
2012,06,21,02,57,13.80
2012,06,21,02,58,13.80
2012,06,21,02,59,13.80
2012,06,21,03,00,13.80
2012,06,21,03,01,13.80
2012,06,21,03,02,13.80
2012,06,21,03,03,13.80
2012,06,21,03,04,13.70
2012,06,21,03,05,13.70
2012,06,21,03,06,13.70
2012,06,21,03,07,13.70
2012,06,21,03,08,13.70
2012,06,21,03,09,13.70
2012,06,21,03,10,13.70
2012,06,21,03,11,13.70
2012,06,21,03,12,13.60
2012,06,21,03,13,13.60
2012,06,21,03,14,13.60
2012,06,21,03,15,13.60
2012,06,21,03,16,13.60
2012,06,21,03,17,13.60
2012,06,21,03,18,13.60
2012,06,21,03,19,13.60
2012,06,21,03,20,13.60
2012,06,21,03,21,13.60
2012,06,21,03,22,13.60
2012,06,21,03,23,13.60
2012,06,21,03,24,13.60
2012,06,21,03,25,13.60
2012,06,21,03,26,13.60
2012,06,21,03,27,13.60
2012,06,21,03,28,13.60
2012,06,21,03,29,13.60
2012,06,21,03,30,13.60
2012,06,21,03,31,13.60
2012,06,21,03,32,13.60
2012,06,21,03,33,13.50
2012,06,21,03,34,13.50
2012,06,21,03,35,13.50
2012,06,21,03,36,13.50
2012,06,21,03,37,13.50
2012,06,21,03,38,13.50
2012,06,21,03,39,13.50
2012,06,21,03,40,13.50
2012,06,21,03,41,13.50
2012,06,21,03,42,13.40
2012,06,21,03,43,13.40
2012,06,21,03,44,13.40
2012,06,21,03,45,13.40
2012,06,21,03,46,13.40
2012,06,21,03,47,13.40
2012,06,21,03,48,13.40
2012,06,21,03,49,13.30
2012,06,21,03,50,13.30
2012,06,21,03,51,13.30
2012,06,21,03,52,13.30
2012,06,21,03,53,13.30
2012,06,21,03,54,13.30
2012,06,21,03,55,13.30
2012,06,21,03,56,13.30
2012,06,21,03,57,13.30
2012,06,21,03,58,13.30
2012,06,21,03,59,13.30
2012,06,21,04,00,13.30
2012,06,21,04,01,13.20
2012,06,21,04,02,13.20
2012,06,21,04,03,13.20
2012,06,21,04,04,13.20
2012,06,21,04,05,13.20
2012,06,21,04,06,13.20
2012,06,21,04,07,13.20
2012,06,21,04,08,13.20
2012,06,21,04,09,13.20
2012,06,21,04,10,13.10
2012,06,21,04,11,13.10
2012,06,21,04,12,13.10
2012,06,21,04,13,13.10
2012,06,21,04,14,13.10
2012,06,21,04,15,13.10
2012,06,21,04,16,13.10
2012,06,21,04,17,13.10
2012,06,21,04,18,13.10
2012,06,21,04,19,13.10
2012,06,21,04,20,13.10
2012,06,21,04,21,13.10
2012,06,21,04,22,13.10
2012,06,21,04,23,13.10
2012,06,21,04,24,13.10
2012,06,21,04,25,13.10
2012,06,21,04,26,13.10
2012,06,21,04,27,13.10
2012,06,21,04,28,13.10
2012,06,21,04,29,13.10
2012,06,21,04,30,13.10
2012,06,21,04,31,13.10
2012,06,21,04,32,13.10
2012,06,21,04,33,13.00
2012,06,21,04,34,13.00
2012,06,21,04,35,13.00
2012,06,21,04,36,13.00
2012,06,21,04,37,13.00
2012,06,21,04,38,13.00
2012,06,21,04,39,12.90
2012,06,21,04,40,12.90
2012,06,21,04,41,12.90
2012,06,21,04,42,12.90
2012,06,21,04,43,12.90
2012,06,21,04,44,12.90
2012,06,21,04,45,12.90
2012,06,21,04,46,12.90
2012,06,21,04,47,12.90
2012,06,21,04,48,12.90
2012,06,21,04,49,12.80
2012,06,21,04,50,12.80
2012,06,21,04,51,12.80
2012,06,21,04,52,12.80
2012,06,21,04,53,12.80
2012,06,21,04,54,12.80
2012,06,21,04,55,12.80
2012,06,21,04,56,12.70
2012,06,21,04,57,12.70
2012,06,21,04,58,12.70
2012,06,21,04,59,12.70
2012,06,21,05,00,12.70
2012,06,21,05,01,12.70
2012,06,21,05,02,12.70
2012,06,21,05,03,12.60
2012,06,21,05,04,12.60
2012,06,21,05,05,12.60
2012,06,21,05,06,12.60
2012,06,21,05,07,12.60
2012,06,21,05,08,12.60
2012,06,21,05,09,12.50
2012,06,21,05,10,12.50
2012,06,21,05,11,12.50
2012,06,21,05,12,12.50
2012,06,21,05,13,12.40
2012,06,21,05,14,12.40
2012,06,21,05,15,12.40
2012,06,21,05,16,12.40
2012,06,21,05,17,12.40
2012,06,21,05,18,12.40
2012,06,21,05,19,12.40
2012,06,21,05,20,12.30
2012,06,21,05,21,12.30
2012,06,21,05,22,12.30
2012,06,21,05,23,12.30
2012,06,21,05,24,12.30
2012,06,21,05,25,12.30
2012,06,21,05,26,12.20
2012,06,21,05,27,12.20
2012,06,21,05,28,12.20
2012,06,21,05,29,12.20
2012,06,21,05,30,12.10
2012,06,21,05,31,12.10
2012,06,21,05,32,12.10
2012,06,21,05,33,12.10
2012,06,21,05,34,12.10
2012,06,21,05,35,12.00
2012,06,21,05,36,12.00
2012,06,21,05,37,12.00
2012,06,21,05,38,12.00
2012,06,21,05,39,11.90
2012,06,21,05,40,11.90
2012,06,21,05,41,11.90
2012,06,21,05,42,11.90
2012,06,21,05,43,11.90
2012,06,21,05,44,11.90
2012,06,21,05,45,11.90
2012,06,21,05,46,11.90
2012,06,21,05,47,11.90
2012,06,21,05,48,11.80
2012,06,21,05,49,11.80
2012,06,21,05,50,11.80
2012,06,21,05,51,11.80
2012,06,21,05,52,11.80
2012,06,21,05,53,11.80
2012,06,21,05,54,11.80
2012,06,21,05,55,11.80
2012,06,21,05,56,11.80
2012,06,21,05,57,11.80
2012,06,21,05,58,11.80
2012,06,21,05,59,11.80
2012,06,21,06,00,11.80
2012,06,21,06,01,11.80
2012,06,21,06,02,11.80
2012,06,21,06,03,11.80
2012,06,21,06,04,11.80
2012,06,21,06,05,11.80
2012,06,21,06,06,11.80
2012,06,21,06,07,11.80
2012,06,21,06,08,11.80
2012,06,21,06,09,11.80
2012,06,21,06,10,11.80
2012,06,21,06,11,11.80
2012,06,21,06,12,11.80
2012,06,21,06,13,11.80
2012,06,21,06,14,11.80
2012,06,21,06,15,11.80
2012,06,21,06,16,11.80
2012,06,21,06,17,11.90
2012,06,21,06,18,11.90
2012,06,21,06,19,11.90
2012,06,21,06,20,11.90
2012,06,21,06,21,11.90
2012,06,21,06,22,12.00
2012,06,21,06,23,12.00
2012,06,21,06,24,12.10
2012,06,21,06,25,12.10
2012,06,21,06,26,12.10
2012,06,21,06,27,12.10
2012,06,21,06,28,12.20
2012,06,21,06,29,12.20
2012,06,21,06,30,12.20
2012,06,21,06,31,12.30
2012,06,21,06,32,12.30
2012,06,21,06,33,12.30
2012,06,21,06,34,12.30
2012,06,21,06,35,12.30
2012,06,21,06,36,12.40
2012,06,21,06,37,12.40
2012,06,21,06,38,12.40
2012,06,21,06,39,12.50
2012,06,21,06,40,12.50
2012,06,21,06,41,12.60
2012,06,21,06,42,12.60
2012,06,21,06,43,12.60
2012,06,21,06,44,12.70
2012,06,21,06,45,12.80
2012,06,21,06,46,12.80
2012,06,21,06,47,12.80
2012,06,21,06,48,12.90
2012,06,21,06,49,12.90
2012,06,21,06,50,13.00
2012,06,21,06,51,13.10
2012,06,21,06,52,13.10
2012,06,21,06,53,13.20
2012,06,21,06,54,13.20
2012,06,21,06,55,13.20
2012,06,21,06,56,13.30
2012,06,21,06,57,13.30
2012,06,21,06,58,13.40
2012,06,21,06,59,13.50
2012,06,21,07,00,13.60
2012,06,21,07,01,13.60
2012,06,21,07,02,13.70
2012,06,21,07,03,13.80
2012,06,21,07,04,13.90
2012,06,21,07,05,14.00
2012,06,21,07,06,14.00
2012,06,21,07,07,14.10
2012,06,21,07,08,14.20
2012,06,21,07,09,14.20
2012,06,21,07,10,14.30
2012,06,21,07,11,14.40
2012,06,21,07,12,14.50
2012,06,21,07,13,14.50
2012,06,21,07,14,14.60
2012,06,21,07,15,14.60
2012,06,21,07,16,14.70
2012,06,21,07,17,14.70
2012,06,21,07,18,14.70
2012,06,21,07,19,14.70
2012,06,21,07,20,14.70
2012,06,21,07,21,14.70
2012,06,21,07,22,14.70
2012,06,21,07,23,14.70
2012,06,21,07,24,14.70
2012,06,21,07,25,14.70
2012,06,21,07,26,14.70
2012,06,21,07,27,14.70
2012,06,21,07,28,14.70
2012,06,21,07,29,14.70
2012,06,21,07,30,14.80
2012,06,21,07,31,14.80
2012,06,21,07,32,14.80
2012,06,21,07,33,14.80
2012,06,21,07,34,14.90
2012,06,21,07,35,14.90
2012,06,21,07,36,15.00
2012,06,21,07,37,15.00
2012,06,21,07,38,15.00
2012,06,21,07,39,15.00
2012,06,21,07,40,15.00
2012,06,21,07,41,15.00
2012,06,21,07,42,15.00
2012,06,21,07,43,15.10
2012,06,21,07,44,15.20
2012,06,21,07,45,15.30
2012,06,21,07,46,15.40
2012,06,21,07,47,15.40
2012,06,21,07,48,15.50
2012,06,21,07,49,15.60
2012,06,21,07,50,15.60
2012,06,21,07,51,15.70
2012,06,21,07,52,15.70
2012,06,21,07,53,15.80
2012,06,21,07,54,15.80
2012,06,21,07,55,15.90
2012,06,21,07,56,15.90
2012,06,21,07,57,15.90
2012,06,21,07,58,15.90
2012,06,21,07,59,15.90
2012,06,21,08,00,15.90
2012,06,21,08,01,15.90
2012,06,21,08,02,15.90
2012,06,21,08,03,16.00
2012,06,21,08,04,16.00
2012,06,21,08,05,16.10
2012,06,21,08,06,16.10
2012,06,21,08,07,16.10
2012,06,21,08,08,16.20
2012,06,21,08,09,16.20
2012,06,21,08,10,16.20
2012,06,21,08,11,16.20
2012,06,21,08,12,16.30
2012,06,21,08,13,16.30
2012,06,21,08,14,16.40
2012,06,21,08,15,16.40
2012,06,21,08,16,16.50
2012,06,21,08,17,16.60
2012,06,21,08,18,16.70
2012,06,21,08,19,16.70
2012,06,21,08,20,16.80
2012,06,21,08,21,16.80
2012,06,21,08,22,16.90
2012,06,21,08,23,17.00
2012,06,21,08,24,17.00
2012,06,21,08,25,17.10
2012,06,21,08,26,17.20
2012,06,21,08,27,17.30
2012,06,21,08,28,17.30
2012,06,21,08,29,17.40
2012,06,21,08,30,17.40
2012,06,21,08,31,17.40
2012,06,21,08,32,17.50
2012,06,21,08,33,17.50
2012,06,21,08,34,17.60
2012,06,21,08,35,17.70
2012,06,21,08,36,17.70
2012,06,21,08,37,17.70
2012,06,21,08,38,17.80
2012,06,21,08,39,17.80
2012,06,21,08,40,17.80
2012,06,21,08,41,17.90
2012,06,21,08,42,17.90
2012,06,21,08,43,18.00
2012,06,21,08,44,18.00
2012,06,21,08,45,18.00
2012,06,21,08,46,18.10
2012,06,21,08,47,18.10
2012,06,21,08,48,18.00
2012,06,21,08,49,18.00
2012,06,21,08,50,17.90
2012,06,21,08,51,17.90
2012,06,21,08,52,17.80
2012,06,21,08,53,17.80
2012,06,21,08,54,17.80
2012,06,21,08,55,17.90
2012,06,21,08,56,17.90
2012,06,21,08,57,18.00
2012,06,21,08,58,18.00
2012,06,21,08,59,18.00
2012,06,21,09,00,18.00
2012,06,21,09,01,17.90
2012,06,21,09,02,17.90
2012,06,21,09,03,17.90
2012,06,21,09,04,17.80
2012,06,21,09,05,17.80
2012,06,21,09,06,17.70
2012,06,21,09,07,17.70
2012,06,21,09,08,17.60
2012,06,21,09,09,17.70
2012,06,21,09,10,17.70
2012,06,21,09,11,17.70
2012,06,21,09,12,17.60
2012,06,21,09,13,17.60
2012,06,21,09,14,17.60
2012,06,21,09,15,17.70
2012,06,21,09,16,17.70
2012,06,21,09,17,17.70
2012,06,21,09,18,17.80
2012,06,21,09,19,17.70
2012,06,21,09,20,17.70
2012,06,21,09,21,17.70
2012,06,21,09,22,17.60
2012,06,21,09,23,17.60
2012,06,21,09,24,17.60
2012,06,21,09,25,17.60
2012,06,21,09,26,17.60
2012,06,21,09,27,17.50
2012,06,21,09,28,17.50
2012,06,21,09,29,17.40
2012,06,21,09,30,17.40
2012,06,21,09,31,17.30
2012,06,21,09,32,17.30
2012,06,21,09,33,17.20
2012,06,21,09,34,17.20
2012,06,21,09,35,17.20
2012,06,21,09,36,17.20
2012,06,21,09,37,17.20
2012,06,21,09,38,17.20
2012,06,21,09,39,17.20
2012,06,21,09,40,17.20
2012,06,21,09,41,17.30
2012,06,21,09,42,17.40
2012,06,21,09,43,17.50
2012,06,21,09,44,17.50
2012,06,21,09,45,17.60
2012,06,21,09,46,17.70
2012,06,21,09,47,17.70
2012,06,21,09,48,17.70
2012,06,21,09,49,17.70
2012,06,21,09,50,17.70
2012,06,21,09,51,17.80
2012,06,21,09,52,17.70
2012,06,21,09,53,17.70
2012,06,21,09,54,17.70
2012,06,21,09,55,17.70
2012,06,21,09,56,17.70
2012,06,21,09,57,17.60
2012,06,21,09,58,17.60
2012,06,21,09,59,17.60
2012,06,21,10,00,17.60
2012,06,21,10,01,17.60
2012,06,21,10,02,17.60
2012,06,21,10,03,17.70
2012,06,21,10,04,17.70
2012,06,21,10,05,17.70
2012,06,21,10,06,17.80
2012,06,21,10,07,17.80
2012,06,21,10,08,17.90
2012,06,21,10,09,17.90
2012,06,21,10,10,18.00
2012,06,21,10,11,18.10
2012,06,21,10,12,18.10
2012,06,21,10,13,18.20
2012,06,21,10,14,18.20
2012,06,21,10,15,18.20
2012,06,21,10,16,18.30
2012,06,21,10,17,18.30
2012,06,21,10,18,18.30
2012,06,21,10,19,18.20
2012,06,21,10,20,18.30
2012,06,21,10,21,18.30
2012,06,21,10,22,18.30
2012,06,21,10,23,18.20
2012,06,21,10,24,18.20
2012,06,21,10,25,18.20
2012,06,21,10,26,18.20
2012,06,21,10,27,18.30
2012,06,21,10,28,18.30
2012,06,21,10,29,18.30
2012,06,21,10,30,18.40
2012,06,21,10,31,18.50
2012,06,21,10,32,18.50
2012,06,21,10,33,18.60
2012,06,21,10,34,18.60
2012,06,21,10,35,18.70
2012,06,21,10,36,18.70
2012,06,21,10,37,18.80
2012,06,21,10,38,18.80
2012,06,21,10,39,18.80
2012,06,21,10,40,18.80
2012,06,21,10,41,18.80
2012,06,21,10,42,18.80
2012,06,21,10,43,18.80
2012,06,21,10,44,18.80
2012,06,21,10,45,18.80
2012,06,21,10,46,18.90
2012,06,21,10,47,18.90
2012,06,21,10,48,19.00
2012,06,21,10,49,19.00
2012,06,21,10,50,19.00
2012,06,21,10,51,19.00
2012,06,21,10,52,19.10
2012,06,21,10,53,19.10
2012,06,21,10,54,19.10
2012,06,21,10,55,19.20
2012,06,21,10,56,19.20
2012,06,21,10,57,19.30
2012,06,21,10,58,19.40
2012,06,21,10,59,19.40
2012,06,21,11,00,19.40
2012,06,21,11,01,19.40
2012,06,21,11,02,19.40
2012,06,21,11,03,19.40
2012,06,21,11,04,19.40
2012,06,21,11,05,19.40
2012,06,21,11,06,19.50
2012,06,21,11,07,19.50
2012,06,21,11,08,19.50
2012,06,21,11,09,19.60
2012,06,21,11,10,19.50
2012,06,21,11,11,19.40
2012,06,21,11,12,19.40
2012,06,21,11,13,19.30
2012,06,21,11,14,19.30
2012,06,21,11,15,19.40
2012,06,21,11,16,19.40
2012,06,21,11,17,19.40
2012,06,21,11,18,19.50
2012,06,21,11,19,19.70
2012,06,21,11,20,19.80
2012,06,21,11,21,19.90
2012,06,21,11,22,20.00
2012,06,21,11,23,20.20
2012,06,21,11,24,20.40
2012,06,21,11,25,20.50
2012,06,21,11,26,20.60
2012,06,21,11,27,20.60
2012,06,21,11,28,20.60
2012,06,21,11,29,20.50
2012,06,21,11,30,20.50
2012,06,21,11,31,20.50
2012,06,21,11,32,20.60
2012,06,21,11,33,20.60
2012,06,21,11,34,20.60
2012,06,21,11,35,20.60
2012,06,21,11,36,20.60
2012,06,21,11,37,20.50
2012,06,21,11,38,20.50
2012,06,21,11,39,20.50
2012,06,21,11,40,20.40
2012,06,21,11,41,20.30
2012,06,21,11,42,20.30
2012,06,21,11,43,20.30
2012,06,21,11,44,20.30
2012,06,21,11,45,20.40
2012,06,21,11,46,20.40
2012,06,21,11,47,20.40
2012,06,21,11,48,20.40
2012,06,21,11,49,20.40
2012,06,21,11,50,20.40
2012,06,21,11,51,20.30
2012,06,21,11,52,20.30
2012,06,21,11,53,20.30
2012,06,21,11,54,20.30
2012,06,21,11,55,20.20
2012,06,21,11,56,20.20
2012,06,21,11,57,20.10
2012,06,21,11,58,20.10
2012,06,21,11,59,20.10
2012,06,21,12,00,20.10
2012,06,21,12,01,20.10
2012,06,21,12,02,20.10
2012,06,21,12,03,20.20
2012,06,21,12,04,20.30
2012,06,21,12,05,20.30
2012,06,21,12,06,20.40
2012,06,21,12,07,20.40
2012,06,21,12,08,20.40
2012,06,21,12,09,20.40
2012,06,21,12,10,20.30
2012,06,21,12,11,20.30
2012,06,21,12,12,20.30
2012,06,21,12,13,20.20
2012,06,21,12,14,20.20
2012,06,21,12,15,20.20
2012,06,21,12,16,20.20
2012,06,21,12,17,20.30
2012,06,21,12,18,20.30
2012,06,21,12,19,20.30
2012,06,21,12,20,20.30
2012,06,21,12,21,20.30
2012,06,21,12,22,20.30
2012,06,21,12,23,20.40
2012,06,21,12,24,20.40
2012,06,21,12,25,20.40
2012,06,21,12,26,20.40
2012,06,21,12,27,20.40
2012,06,21,12,28,20.30
2012,06,21,12,29,20.20
2012,06,21,12,30,20.20
2012,06,21,12,31,20.20
2012,06,21,12,32,20.30
2012,06,21,12,33,20.40
2012,06,21,12,34,20.50
2012,06,21,12,35,20.60
2012,06,21,12,36,20.70
2012,06,21,12,37,20.80
2012,06,21,12,38,20.90
2012,06,21,12,39,21.00
2012,06,21,12,40,21.10
2012,06,21,12,41,21.20
2012,06,21,12,42,21.20
2012,06,21,12,43,21.30
2012,06,21,12,44,21.30
2012,06,21,12,45,21.20
2012,06,21,12,46,21.10
2012,06,21,12,47,21.00
2012,06,21,12,48,21.00
2012,06,21,12,49,21.00
2012,06,21,12,50,21.10
2012,06,21,12,51,21.20
2012,06,21,12,52,21.30
2012,06,21,12,53,21.30
2012,06,21,12,54,21.30
2012,06,21,12,55,21.30
2012,06,21,12,56,21.40
2012,06,21,12,57,21.40
2012,06,21,12,58,21.40
2012,06,21,12,59,21.50
2012,06,21,13,00,21.40
2012,06,21,13,01,21.50
2012,06,21,13,02,21.50
2012,06,21,13,03,21.50
2012,06,21,13,04,21.40
2012,06,21,13,05,21.40
2012,06,21,13,06,21.40
2012,06,21,13,07,21.40
2012,06,21,13,08,21.40
2012,06,21,13,09,21.40
2012,06,21,13,10,21.40
2012,06,21,13,11,21.30
2012,06,21,13,12,21.30
2012,06,21,13,13,21.30
2012,06,21,13,14,21.30
2012,06,21,13,15,21.30
2012,06,21,13,16,21.40
2012,06,21,13,17,21.50
2012,06,21,13,18,21.50
2012,06,21,13,19,21.60
2012,06,21,13,20,21.70
2012,06,21,13,21,21.70
2012,06,21,13,22,21.70
2012,06,21,13,23,21.70
2012,06,21,13,24,21.70
2012,06,21,13,25,21.70
2012,06,21,13,26,21.60
2012,06,21,13,27,21.50
2012,06,21,13,28,21.50
2012,06,21,13,29,21.50
2012,06,21,13,30,21.40
2012,06,21,13,31,21.40
2012,06,21,13,32,21.40
2012,06,21,13,33,21.30
2012,06,21,13,34,21.30
2012,06,21,13,35,21.30
2012,06,21,13,36,21.40
2012,06,21,13,37,21.40
2012,06,21,13,38,21.30
2012,06,21,13,39,21.30
2012,06,21,13,40,21.30
2012,06,21,13,41,21.30
2012,06,21,13,42,21.30
2012,06,21,13,43,21.20
2012,06,21,13,44,21.20
2012,06,21,13,45,21.10
2012,06,21,13,46,21.10
2012,06,21,13,47,21.10
2012,06,21,13,48,21.10
2012,06,21,13,49,21.00
2012,06,21,13,50,21.00
2012,06,21,13,51,20.90
2012,06,21,13,52,20.90
2012,06,21,13,53,20.90
2012,06,21,13,54,20.90
2012,06,21,13,55,21.00
2012,06,21,13,56,21.00
2012,06,21,13,57,21.10
2012,06,21,13,58,21.20
2012,06,21,13,59,21.20
2012,06,21,14,00,21.20
2012,06,21,14,01,21.10
2012,06,21,14,02,21.00
2012,06,21,14,03,21.00
2012,06,21,14,04,20.90
2012,06,21,14,05,20.90
2012,06,21,14,06,20.80
2012,06,21,14,07,20.90
2012,06,21,14,08,20.90
2012,06,21,14,09,21.00
2012,06,21,14,10,21.00
2012,06,21,14,11,21.20
2012,06,21,14,12,21.20
2012,06,21,14,13,21.20
2012,06,21,14,14,21.20
2012,06,21,14,15,21.20
2012,06,21,14,16,21.20
2012,06,21,14,17,21.30
2012,06,21,14,18,21.30
2012,06,21,14,19,21.40
2012,06,21,14,20,21.50
2012,06,21,14,21,21.60
2012,06,21,14,22,21.70
2012,06,21,14,23,21.80
2012,06,21,14,24,21.80
2012,06,21,14,25,21.90
2012,06,21,14,26,22.00
2012,06,21,14,27,22.00
2012,06,21,14,28,22.10
2012,06,21,14,29,22.10
2012,06,21,14,30,22.20
2012,06,21,14,31,22.20
2012,06,21,14,32,22.20
2012,06,21,14,33,22.30
2012,06,21,14,34,22.30
2012,06,21,14,35,22.30
2012,06,21,14,36,22.20
2012,06,21,14,37,22.10
2012,06,21,14,38,22.00
2012,06,21,14,39,22.00
2012,06,21,14,40,21.90
2012,06,21,14,41,21.90
2012,06,21,14,42,21.90
2012,06,21,14,43,22.00
2012,06,21,14,44,22.00
2012,06,21,14,45,22.10
2012,06,21,14,46,22.10
2012,06,21,14,47,22.10
2012,06,21,14,48,22.10
2012,06,21,14,49,22.10
2012,06,21,14,50,22.10
2012,06,21,14,51,22.00
2012,06,21,14,52,21.90
2012,06,21,14,53,21.80
2012,06,21,14,54,21.80
2012,06,21,14,55,21.80
2012,06,21,14,56,21.90
2012,06,21,14,57,21.90
2012,06,21,14,58,22.00
2012,06,21,14,59,22.00
2012,06,21,15,00,22.00
2012,06,21,15,01,22.10
2012,06,21,15,02,22.10
2012,06,21,15,03,22.10
2012,06,21,15,04,22.20
2012,06,21,15,05,22.20
2012,06,21,15,06,22.20
2012,06,21,15,07,22.20
2012,06,21,15,08,22.20
2012,06,21,15,09,22.10
2012,06,21,15,10,22.10
2012,06,21,15,11,22.00
2012,06,21,15,12,22.10
2012,06,21,15,13,22.10
2012,06,21,15,14,22.20
2012,06,21,15,15,22.20
2012,06,21,15,16,22.30
2012,06,21,15,17,22.30
2012,06,21,15,18,22.30
2012,06,21,15,19,22.20
2012,06,21,15,20,22.10
2012,06,21,15,21,22.10
2012,06,21,15,22,22.00
2012,06,21,15,23,22.00
2012,06,21,15,24,21.90
2012,06,21,15,25,21.90
2012,06,21,15,26,22.00
2012,06,21,15,27,22.00
2012,06,21,15,28,22.10
2012,06,21,15,29,22.20
2012,06,21,15,30,22.20
2012,06,21,15,31,22.20
2012,06,21,15,32,22.20
2012,06,21,15,33,22.10
2012,06,21,15,34,22.10
2012,06,21,15,35,22.10
2012,06,21,15,36,22.10
2012,06,21,15,37,22.00
2012,06,21,15,38,22.00
2012,06,21,15,39,21.90
2012,06,21,15,40,21.90
2012,06,21,15,41,21.90
2012,06,21,15,42,21.90
2012,06,21,15,43,21.90
2012,06,21,15,44,21.80
2012,06,21,15,45,21.80
2012,06,21,15,46,21.80
2012,06,21,15,47,21.70
2012,06,21,15,48,21.70
2012,06,21,15,49,21.70
2012,06,21,15,50,21.60
2012,06,21,15,51,21.50
2012,06,21,15,52,21.30
2012,06,21,15,53,21.20
2012,06,21,15,54,21.10
2012,06,21,15,55,21.00
2012,06,21,15,56,20.90
2012,06,21,15,57,20.80
2012,06,21,15,58,20.80
2012,06,21,15,59,20.80
2012,06,21,16,00,20.80
2012,06,21,16,01,20.80
2012,06,21,16,02,20.80
2012,06,21,16,03,20.80
2012,06,21,16,04,20.80
2012,06,21,16,05,20.90
2012,06,21,16,06,20.90
2012,06,21,16,07,20.90
2012,06,21,16,08,20.90
2012,06,21,16,09,21.00
2012,06,21,16,10,21.00
2012,06,21,16,11,21.00
2012,06,21,16,12,21.00
2012,06,21,16,13,21.00
2012,06,21,16,14,20.90
2012,06,21,16,15,20.90
2012,06,21,16,16,20.90
2012,06,21,16,17,20.90
2012,06,21,16,18,20.80
2012,06,21,16,19,20.80
2012,06,21,16,20,20.80
2012,06,21,16,21,20.80
2012,06,21,16,22,20.90
2012,06,21,16,23,20.90
2012,06,21,16,24,20.90
2012,06,21,16,25,20.90
2012,06,21,16,26,21.00
2012,06,21,16,27,21.00
2012,06,21,16,28,21.00
2012,06,21,16,29,21.00
2012,06,21,16,30,21.00
2012,06,21,16,31,21.10
2012,06,21,16,32,21.10
2012,06,21,16,33,21.10
2012,06,21,16,34,21.10
2012,06,21,16,35,21.00
2012,06,21,16,36,21.00
2012,06,21,16,37,21.00
2012,06,21,16,38,21.00
2012,06,21,16,39,21.00
2012,06,21,16,40,21.00
2012,06,21,16,41,21.00
2012,06,21,16,42,21.00
2012,06,21,16,43,20.90
2012,06,21,16,44,20.90
2012,06,21,16,45,20.90
2012,06,21,16,46,20.80
2012,06,21,16,47,20.80
2012,06,21,16,48,20.80
2012,06,21,16,49,20.80
2012,06,21,16,50,20.80
2012,06,21,16,51,20.80
2012,06,21,16,52,20.80
2012,06,21,16,53,20.90
2012,06,21,16,54,20.90
2012,06,21,16,55,20.90
2012,06,21,16,56,20.90
2012,06,21,16,57,20.80
2012,06,21,16,58,20.80
2012,06,21,16,59,20.80
2012,06,21,17,00,20.80
2012,06,21,17,01,20.80
2012,06,21,17,02,20.70
2012,06,21,17,03,20.70
2012,06,21,17,04,20.80
2012,06,21,17,05,20.80
2012,06,21,17,06,20.80
2012,06,21,17,07,20.80
2012,06,21,17,08,20.80
2012,06,21,17,09,20.70
2012,06,21,17,10,20.70
2012,06,21,17,11,20.70
2012,06,21,17,12,20.60
2012,06,21,17,13,20.60
2012,06,21,17,14,20.60
2012,06,21,17,15,20.60
2012,06,21,17,16,20.60
2012,06,21,17,17,20.50
2012,06,21,17,18,20.50
2012,06,21,17,19,20.40